User: anonymous
Location: Unspecified
(0.0000°N, 0.0000°E)
Time: 01:51:22
(UTC+00:00)
Language:

SR - Orbit

View from above orbital plane
View from above orbital plane
View from above satellite
View from above satellite

Ground track
Ground track

The orbit data is extracted from the following two-line orbital elements,

1 00046U 60007B   14243.70609465  .00000379  00000-0  98362-4 0  7274
2 00046 066.6937 002.7133 0221983 268.4536 089.1135 14.47798633832444
Epoch (UTC): 31 August 2014 16:56:46
Eccentricity: 0.0221983
inclination: 66.6937°
perigee height: 575 km
apogee height: 891 km
right ascension of ascending node: 2.7133°
argument of perigee: 268.4536°
revolutions per day: 14.47798633
mean anomaly at epoch: 89.1135°
orbit number at epoch: 83244

The dashed part of the orbit path shows where the satellite is in the earth's shadow,  

DLR